Regional Weather Roundup
Issued by NWS

Home | Current Version | Previous Version | Graphics & Text | Print | Product List | Glossary On
Versions: 1 2 3 4 5 6 7 8 9 10 11 12 13 14 15 16 17 18 19 20 21 22 23 24 25 26 27 28 29 30 31 32 33 34 35 36 37 38 39 40 41 42 43 44 45 46 47 48 49 50
023
ASUS43 KFSD 211802
RWRSD

WEATHER ROUNDUP FOR SOUTH DAKOTA
NATIONAL WEATHER SERVICE SIOUX FALLS SD
100 PM CDT THU MAY 21 2015

NOTE: "FAIR" INDICATES FEW OR NO CLOUDS BELOW 12,000 FEET WITH NO
SIGNIFICANT WEATHER AND/OR OBSTRUCTIONS TO VISIBILITY.


SDZ001>005-009-010-012>017-211900-
NORTHWEST AND NORTH CENTRAL SOUTH DAKOTA

CITY           SKY/WX    TMP DP  RH WIND       PRES   REMARKS
BUFFALO          N/A     64  30  27 SE15G24   30.16F
FAITH            N/A     63  32  31 S9        30.22F
MOBRIDGE       SUNNY     72  30  21 NW10      30.17F
$$

SDZ012>016-024>037-041>051-057-063-072>074-211900-
SOUTHWEST AND SOUTH CENTRAL SOUTH DAKOTA

CITY           SKY/WX    TMP DP  RH WIND       PRES   REMARKS
RAPID CTY ARPT SUNNY     58  32  37 SE13      30.23F
PIERRE         SUNNY     65  36  34 SW7       30.22F
CUSTER         SUNNY     51  29  42 E12       30.22F
ELLSWORTH AFB  MOSUNNY   58  31  35 S12       30.22F
PHILIP         SUNNY     62  33  33 SE5       30.23F
PINE RIDGE     MOSUNNY   57  36  45 VRB7      30.23F
WINNER           N/A    N/A N/A N/A MISG      30.25F
$$

SDZ004>011-016>023-039-040-211900-
NORTHEAST SOUTH DAKOTA

CITY           SKY/WX    TMP DP  RH WIND       PRES   REMARKS
ABERDEEN       SUNNY     71  41  33 NW14      30.16F
WATERTOWN      SUNNY     66  41  40 NW12      30.16S
BROOKINGS      SUNNY     66  37  34 N17G25    30.16F
$$

SDZ017-020-022-023-036>040-048>070-211900-
SOUTHEAST SOUTH DAKOTA

CITY           SKY/WX    TMP DP  RH WIND       PRES   REMARKS
SIOUX FALLS    MOSUNNY   71  38  29 NW17G25   30.16F
HURON          SUNNY     72  35  25 NW21      30.17F
CHAMBERLAIN    SUNNY     66  37  33 W7        30.23F
MITCHELL       SUNNY     72  35  25 W13G23    30.20F
YANKTON        SUNNY     66  37  34 NW10G16   30.20F
$$

ABBREVIATIONS USED IN REMARKS
   TC - TEMPERATURE IN CELSIUS
  WCI - WIND CHILL INDEX
   HX - HEAT INDEX
  VSB - VISIBILITY




USA.gov is the U.S. government's official web portal to all federal, state and local government web resources and services.